Regional Weather Roundup
Issued by NWS San Angelo, TX

Home | Current Version | Previous Version | Text Only | Print | Product List | Glossary On
Versions: 1 2 3 4 5 6 7 8 9 10 11 12 13 14 15 16 17 18 19 20 21 22 23 24 25 26 27 28 29 30 31 32 33 34 35 36 37 38 39 40 41 42 43 44 45 46 47 48 49 50
000
ASUS44 KSJT 230210
RWRSJT
WEST CENTRAL TEXAS REGIONAL WEATHER ROUNDUP
NATIONAL WEATHER SERVICE SAN ANGELO TX
900 PM CDT THU JUN 22 2017

NOTE: "FAIR" INDICATES FEW OR NO CLOUDS BELOW 12,000 FEET WITH NO
SIGNIFICANT WEATHER AND/OR OBSTRUCTIONS TO VISIBILITY.

TXZ049-054-064>066-071>073-076>078-098-099-113-114-127-128-139-140-
154-155-168>170-230300
...LOCATIONS ACROSS WEST CENTRAL TEXAS...

CITY           SKY/WX    TMP DP  RH WIND       PRES   REMARKS
SAN ANGELO     CLEAR     94  53  25 SE5       29.66S
ABILENE        CLEAR     86  61  42 SE8       29.68R
DYESS AFB      CLEAR     91  63  39 SE10      29.66R
JUNCTION       CLEAR     94  58  29 SW3       29.68R
SWEETWATER     CLEAR     88  57  35 SE6       29.72S
BROWNWOOD      CLEAR     84  59  42 E3        29.68R
COLEMAN        CLEAR     88  56  32 E6        29.69R
SONORA         CLEAR     93  57  29 CALM      29.75S
OZONA          FAIR      91  54  27 S9        29.74S
BRADY          NOT AVBL
$$

TEXAS PANHANDLE/OKLAHOMA PANHANDLE

CITY           SKY/WX    TMP DP  RH WIND       PRES   REMARKS
AMARILLO       CLEAR     89  55  31 S13       29.76R
BORGER         CLEAR     93  56  28 SE12G20   29.70R
CANADIAN       CLEAR     88  60  38 SE8       29.66S
DALHART        LGT RAIN  84  59  42 S13G29    29.79R
DUMAS          LGT RAIN  85  59  41 SW23G30   29.78R
GUYMON         NOT AVBL
HEREFORD       PTCLDY    91  58  33 W15G22    29.82R HAZE
PAMPA          CLEAR     86  59  39 SE14      29.74R
PERRYTON       CLEAR     86  63  45 SE8       29.70R
$$

SOUTHERN PANHANDLE/SOUTH PLAINS/ROLLING PLAINS

CITY           SKY/WX    TMP DP  RH WIND       PRES   REMARKS
LUBBOCK        MOCLDY    93  52  24 S12       29.73R
SNYDER         CLEAR     92  55  28 SE7       29.70S
CHILDRESS      CLEAR     91  55  29 SE10      29.65R
SEMINOLE       CLEAR     93  50  22 SE9       29.75S
$$

PERMIAN BASIN

CITY           SKY/WX    TMP DP  RH WIND       PRES   REMARKS
MIDLAND        CLEAR     96  53  23 SE9       29.70F
ODESSA         CLEAR     96  48  19 SE9       29.72S
WINK           CLEAR    100  47  16 SE10      29.68R
$$

FAR WEST/SOUTHWEST MOUNTAINS/TRANS PECOS

CITY           SKY/WX    TMP DP  RH WIND       PRES   REMARKS
ALPINE         CLEAR     91  48  23 S8        29.92R
DRYDEN           N/A     96  57  27 E9        29.68R
EL PASO        PTCLDY   101  36  10 W16G23    29.75R
FORT STOCKTON  CLEAR     97  53  22 SE14G21   29.72R
GUADALUPE PASS CLOUDY    85  47  26 E5        29.93R
MARFA          CLEAR     87  49  26 SE5       29.92R
PECOS          CLEAR     98  46  17 E7        29.66R
$$

DALLAS/FORT WORTH METROPLEX

CITY           SKY/WX    TMP DP  RH WIND       PRES   REMARKS
DFW AIRPORT    CLOUDY    85  73  67 S6        29.63S
FTW MEACHAM    PTCLDY    86  72  62 SE6       29.64S
DAL-EXECUTIVE  CLOUDY    81  74  79 CALM      29.65R
GRAND PRAIRIE  CLEAR     88  72  58 SE3       29.65S
ADDISON        CLEAR     88  72  58 CALM      29.64S
MESQUITE       PTCLDY    83  72  69 CALM      29.65R
LANCASTER      PTCLDY    83  73  69 CALM      29.66R
$$

NORTH CENTRAL TEXAS

CITY           SKY/WX    TMP DP  RH WIND       PRES   REMARKS
SHRMAN/DENISON CLOUDY    83  71  65 CALM      29.66R
GAINESVILLE    CLEAR     80  71  74 CALM      29.67S
BRIDGEPORT     CLEAR     82  69  66 SE3       29.67R
DENTON         CLEAR     84  73  69 SE3       29.64S
WAXAHACHIE     PTCLDY    80  74  81 CALM      29.67R
GRANBURY       PTCLDY    87  71  59 SE7       29.66S
$$

WESTERN NORTH TEXAS

CITY           SKY/WX    TMP DP  RH WIND       PRES   REMARKS
WICHITA FALLS  CLEAR     84  69  60 SE9       29.64R
VERNON         CLEAR     90  52  27 SE8       29.64S
BRECKENRIDGE   CLEAR     88  59  37 S5        29.66R
COMANCHE       CLEAR     82  64  53 E5        29.68S
$$

CENTRAL AND SOUTH CENTRAL TEXAS

CITY           SKY/WX    TMP DP  RH WIND       PRES   REMARKS
AUSTIN/BERGSTM MOCLDY    91  70  49 E7        29.64S
WACO           CLOUDY    84  74  71 E6        29.65S
HILLSBORO      MOCLDY    81  75  83 SE5       29.67R
TEMPLE         MOCLDY    85  72  65 E8        29.67R
KILLEEN-GRAY   PTCLDY    87  70  55 SE9       29.66R
FORT HOOD      PTCLDY   N/A N/A N/A SE14      29.64R
GEORGETOWN     CLEAR     90  70  51 E7        29.67
LAGO VISTA     FAIR      88  67  50 SE3       29.69S
SAN MARCOS     CLEAR     86  64  48 S5        29.66S
NEW BRAUNFELS  CLEAR     84  59  42 S8        29.64S
RANDOLPH AFB   CLEAR     86  56  35 SE7       29.65S
SAN ANTONIO    MOCLDY    89  57  33 SE10      29.66R
STINSON        CLEAR     90  62  39 SE5       29.63S
PLEASANTON     NOT AVBL
LA GRANGE      MOCLDY    89  76  66 SE7       29.66R
GIDDINGS       CLOUDY    86  71  62 E7        29.68R
$$

EAST TEXAS

CITY           SKY/WX    TMP DP  RH WIND       PRES   REMARKS
PARIS            N/A     83  74  74 CALM      29.64R
CLARKSVILLE    NOT AVBL
TYLER          CLOUDY    81  78  91 S7        29.65S
LONGVIEW       MOCLDY    79  78  97 SW10      29.63R
PALESTINE      CLOUDY    78  77  95 S3        29.68S
NACOGDOCHES    CLOUDY    77  73  88 MISG      29.66F
$$

TEXAS HILL COUNTRY AND EDWARDS PLATEAU

CITY           SKY/WX    TMP DP  RH WIND       PRES   REMARKS
LLANO          CLEAR     90  55  31 CALM      29.69S
HORSESHOE BAY  FAIR      87  59  39 MISG      29.67S
KERRVILLE      CLEAR     88  64  44 S5        29.70S
FREDERICKSBRG  PTCLDY    86  45  23 E3        29.71R
ROCKSPRINGS    CLEAR     90  57  33 CALM      29.76R
HONDO          CLEAR     88  63  43 S7        29.66R
UVALDE         CLEAR     90  62  38 CALM      29.66S
DEL RIO        CLEAR     94  60  32 E7        29.62S
$$

SOUTHEAST TEXAS

CITY           SKY/WX    TMP DP  RH WIND       PRES   REMARKS
COLLEGE STN    MOCLDY    81  74  79 SE7       29.67S
CALDWELL       NOT AVBL
CROCKETT       MOCLDY    77  75  94 CALM      29.71S
BRENHAM        CLOUDY    84  75  73 SE7       29.69S
HUNTSVILLE     CLOUDY    80  75  84 S5        29.69S
CONROE         CLOUDY    80  77  90 CALM      29.70S
HOUSTON BUSH   CLOUDY    84  74  71 S8        29.70R
HOUSTON HOBBY  CLOUDY    84  76  76 S7        29.71R
PERLAND        CLOUDY    85  77  77 S9        29.72R
WHARTON        PTCLDY    82  75  80 S8        29.70S
$$

THE UPPER TEXAS COAST

CITY           SKY/WX    TMP DP  RH WIND       PRES   REMARKS
ORANGE         CLOUDY    82  78  87 S16G22    29.75R
PORT ARTHUR    CLOUDY    81  78  91 S14       29.73R
GALVESTON      MOCLDY    82  80  94 S17       29.73R
ANGLETON       MOCLDY    83  79  88 S13       29.72R
BAY CITY       MOCLDY    83  78  83 S8        29.70S
$$

TEXAS COASTAL BEND, RIO GRANDE PLAINS DEEP SOUTH TEXAS

CITY           SKY/WX    TMP DP  RH WIND       PRES   REMARKS
VICTORIA       CLEAR     85  76  74 S14       29.68R
BEEVILLE       FAIR      86  78  75 SE10      29.67R
ROCKPORT       CLEAR     85  77  77 S17G25    29.66S
PORT ARANSAS   CLEAR     84  77  80 S17G28    29.66S
PORT LAVACA    CLEAR     83  79  88 CALM      29.69S
CORPUS CHRISTI PTCLDY    86  77  74 SE18G26   29.65S
KINGSVILLE NAS PTCLDY    87  80  79 SE16      29.64R
COTULLA        PTCLDY    96  55  25 SE3       29.61S
LAREDO         CLEAR    100  64  30 SE3       29.61S
BROWNSVILLE    CLEAR     83  78  85 S18       29.68S
PORT ISABEL    CLEAR     85  78  80 S22       29.67R
HEBBRONVILLE   CLEAR     94  68  41 SE15G21   29.65R
MCALLEN        CLEAR     90  71  53 S18G25    29.65R
WESLACO        PTCLDY    86  75  68 S17G23    29.65R
FALFURRIAS     CLOUDY    94  69  44 SE13      29.64R
EDINBURG       CLEAR     91  68  45 S16G23    29.64S
$$




USA.gov is the U.S. government's official web portal to all federal, state and local government web resources and services.